Date,TemperatureHighF,TemperatureAvgF,TemperatureLowF,DewpointHighF,DewpointAvgF,DewpointLowF,HumidityHigh,HumidityAvg,HumidityLow,PressureMaxIn,PressureMinIn,WindSpeedMaxMPH,WindSpeedAvgMPH,GustSpeedMaxMPH,PrecipitationSumIn
2013-1-1,50.9,47.7,40.5,37.8,28.9,21.7,74,49,35,29.69,29.48,24,4,24,0.00
2013-1-2,50.0,41.1,34.3,37.4,32.1,28.8,86,71,50,29.96,29.66,20,3,20,0.00
2013-1-3,50.9,38.9,30.2,30.7,24.8,18.0,84,60,35,30.25,29.96,24,3,24,0.00
2013-1-4,56.5,48.7,40.6,32.9,22.5,14.7,64,36,27,30.22,30.01,35,8,35,0.00
2013-1-5,63.1,52.7,43.3,28.8,25.7,20.7,47,35,25,30.04,29.84,25,6,27,0.00
2013-1-6,61.2,49.4,39.9,31.6,25.6,18.7,61,41,25,29.90,29.84,19,0,19,0.00
2013-1-7,63.0,50.2,38.5,30.7,26.6,19.6,69,42,26,29.90,29.72,17,4,17,0.00
2013-1-8,55.4,42.5,35.2,40.6,32.8,28.2,83,70,39,29.90,29.84,4,1,4,0.00
2013-1-9,51.3,40.5,30.4,41.0,33.3,25.9,87,76,51,29.84,29.66,17,1,17,0.00
2013-1-10,57.2,47.9,39.9,32.5,27.6,25.2,64,46,35,29.72,29.60,26,2,32,0.00
2013-1-11,52.7,42.3,35.8,37.0,31.3,27.1,85,66,44,29.78,29.66,15,2,17,0.00
2013-1-12,53.8,43.1,33.8,31.6,25.8,20.5,81,53,32,29.72,29.42,21,4,21,0.00
2013-1-13,49.3,45.9,37.9,38.1,30.8,25.3,71,56,48,29.48,29.31,23,5,23,0.04
2013-1-14,50.4,40.3,33.4,33.8,29.3,24.8,82,66,38,29.54,29.42,13,2,15,0.00
2013-1-15,52.2,43.3,33.6,32.2,18.3,3.0,82,40,19,29.51,29.31,29,7,29,0.00
2013-1-16,49.8,38.5,29.1,31.3,20.5,6.6,63,48,31,29.48,29.10,22,2,23,0.00
2013-1-17,48.9,41.0,32.5,34.7,29.6,25.7,80,64,45,29.39,29.22,9,2,9,0.00
2013-1-18,51.4,40.7,31.3,37.8,31.1,25.0,85,70,47,29.36,28.95,12,2,12,0.00
2013-1-19,54.1,48.0,41.4,51.6,42.0,34.5,93,80,56,28.98,28.48,17,2,25,0.21
2013-1-20,55.8,47.3,36.9,37.2,31.3,27.9,77,55,36,29.10,28.57,20,3,20,0.00
2013-1-21,51.4,42.8,35.4,39.6,30.4,20.8,79,63,39,29.39,29.01,28,3,28,0.08
2013-1-22,50.9,45.3,40.6,25.0,19.1,16.3,48,35,27,29.39,29.07,32,8,38,0.00
2013-1-23,49.1,42.3,33.8,30.4,23.0,20.7,74,47,36,29.31,29.01,30,7,30,0.00
2013-1-24,50.7,42.8,36.3,30.2,24.1,19.2,73,48,35,29.34,29.13,24,0,30,0.00
2013-1-25,55.9,44.5,30.0,28.9,15.3,10.2,74,34,17,29.48,29.31,34,9,37,0.00
2013-1-26,54.5,44.8,39.6,33.8,23.8,14.0,76,45,30,29.66,29.31,31,5,34,0.00
2013-1-27,56.8,48.5,37.8,38.8,28.8,24.6,81,48,30,29.66,29.31,34,7,34,0.00
2013-1-28,57.7,48.1,38.7,41.9,33.7,28.6,84,59,36,29.93,29.36,19,3,20,0.05
2013-1-29,60.1,47.5,38.1,38.3,31.3,10.6,83,55,30,29.96,29.84,15,3,15,0.00
2013-1-30,65.5,53.5,41.2,29.8,24.9,9.7,60,34,23,29.96,29.78,32,8,36,0.00
2013-1-31,64.6,51.1,39.9,37.8,33.3,27.7,75,52,33,30.01,29.90,22,2,22,0.00